Project,Study,Ord_Occ,Event_Num,Cast_ID,Date_Time_UTC,Date_Time_PST,Lat_Dec,Lon_Dec,Sta_ID,Line,Sta,Depth,Pressure,PrQ,Temp1,Temp1Q,Temp2,Temp2Q,TempAve,Salt1,Salt1Q,Salt1_Corr,Salt2,Salt2Q,Salt2_Corr,SaltAve_Corr,Ox1,Ox1Q,Ox1_CruiseCorr,Ox1_StaCorr,Ox2,Ox2Q,Ox2_CruiseCorr,Ox2_StaCorr,OxAve_StaCorr,Ox1uM,Ox1uM_CruiseCorr,Ox1uM_StaCorr,Ox2uM,Ox2uM_CruiseCorr,Ox2uM_StaCorr,OxAveuM_StaCorr,FluorV,FluorQ,EstChl_CruiseCorr,EstChl_StaCorr,ISUSV,ISUSQ,EstNO3_CruiseCorr,EstNO3_StaCorr,SigThetaTS1,SigThetaTS1Q,SigThetaTS2,SigThetaTS2Q,BAT,XMiss,TransQ,pH,pHQ,SPAR,SPARQ,PAR,PARQ,PoT1,PoT2,DynHt,SVA,OxSat1,OxSat2,BTL_Depth,BTL_Temp,SaltB,OxB,OxBuM,Chl-a,Phaeo,NO3,NO2,NH4,PO4,SIL
CalCOFI,2105SH,007,,2105_007u,05-May-2021 14:25:09,05-May-2021 06:25:09,32.17940,-118.89411,093.3 050.0,093.3,050.0,516.000,520.282,,6.0886,,6.0882,,6.0884,34.3331,,34.3343,34.3337,,34.3356,34.3350,0.2358,,0.3127,0.3151,0.2408,,0.3088,0.3131,0.3141,10.254,13.2183,13.6536,10.470,16.2029,13.7092,13.6814,0.0377,,,,0.5762,,0.0000,,27.0203,,27.0207,,,,,,,,,,,6.0428,6.0425,0.7882,110.296,3.405,3.477,516,6.089,34.3302,0.363,15.79,,,41.03,0.00,0.00,3.23,72.92
CalCOFI,2105SH,007,,2105_007u,05-May-2021 14:25:52,05-May-2021 06:25:52,32.17940,-118.89406,093.3 050.0,093.3,050.0,515.000,519.272,,6.0895,,6.0896,,6.0896,34.3333,,34.3345,34.3338,,34.3357,34.3351,0.2323,,0.3090,0.3115,0.2391,,0.3071,0.3113,0.3114,10.102,13.0594,13.4955,10.396,16.0387,13.6330,13.5643,0.0371,,,,0.5758,,0.0000,,27.0202,,27.0206,,,,,,,,,,,6.0438,6.0439,0.7915,110.284,3.355,3.452,,,,,,,,,,,,
CalCOFI,2105SH,007,,2105_007u,05-May-2021 14:26:17,05-May-2021 06:26:17,32.17940,-118.89404,093.3 050.0,093.3,050.0,514.000,518.262,,6.0892,,6.0896,,6.0894,34.3330,,34.3342,34.3335,,34.3354,34.3348,0.2281,,0.3046,0.3071,0.2370,,0.3049,0.3092,0.3082,9.921,12.8702,13.3071,10.304,15.8432,13.5383,13.4227,0.0374,,,,0.5753,,0.0000,,27.0201,,27.0204,,,,,,,,,,,6.0437,6.0440,0.7930,110.286,3.295,3.422,,,,,,,,,,,,
CalCOFI,2105SH,007,,2105_007u,05-May-2021 14:26:17,05-May-2021 06:26:17,32.17940,-118.89404,093.3 050.0,093.3,050.0,513.000,517.253,,6.0911,,6.0913,,6.0912,34.3329,,34.3341,34.3337,,34.3356,34.3349,0.2332,,0.3100,0.3124,0.2370,,0.3049,0.3092,0.3108,10.141,13.1002,13.5361,10.305,16.0808,13.5393,13.5377,0.0379,,,,0.5753,,0.0000,,27.0197,,27.0203,,,,,,,,,,,6.0456,6.0458,0.7930,110.307,3.368,3.422,,,,,,,,,,,,
CalCOFI,2105SH,007,,2105_007u,05-May-2021 14:26:18,05-May-2021 06:26:18,32.17940,-118.89404,093.3 050.0,093.3,050.0,512.000,516.243,,6.0960,,6.0928,,6.0944,34.3324,,34.3336,34.3339,,34.3358,34.3347,0.2357,,0.3126,0.3150,0.2379,,0.3058,0.3101,0.3126,10.252,13.2162,13.6516,10.348,16.2007,13.5836,13.6176,0.0364,,,,0.5754,,0.0000,,27.0187,,27.0203,,,,,,,,,,,6.0505,6.0474,0.7930,110.391,3.405,3.437,,,,,,,,,,,,
CalCOFI,2105SH,007,,2105_007u,05-May-2021 14:26:19,05-May-2021 06:26:19,32.17940,-118.89404,093.3 050.0,093.3,050.0,511.000,515.234,,6.1115,,6.1013,,6.1064,34.3316,,34.3328,34.3337,,34.3356,34.3342,0.2384,,0.3154,0.3178,0.2390,,0.3070,0.3112,0.3145,10.366,13.3354,13.7702,10.392,16.3238,13.6289,13.6996,0.0372,,,,0.5754,,0.0000,,27.0161,,27.0190,,,,,,,,,,,6.0662,6.0560,0.7930,110.645,3.444,3.452,,,,,,,,,,,,
CalCOFI,2105SH,007,,2105_007u,05-May-2021 14:26:21,05-May-2021 06:26:21,32.17940,-118.89404,093.3 050.0,093.3,050.0,510.000,514.224,,6.1209,,6.1124,,6.1167,34.3318,,34.3330,34.3334,,34.3353,34.3342,0.2374,,0.3144,0.3168,0.2463,,0.3145,0.3187,0.3178,10.321,13.2884,13.7234,10.713,16.2752,13.9594,13.8414,0.0384,,,,0.5755,,0.0000,,27.0151,,27.0174,,,,,,,,,,,6.0756,6.0671,0.7930,110.738,3.430,3.559,,,,,,,,,,,,
CalCOFI,2105SH,007,,2105_007u,05-May-2021 14:26:22,05-May-2021 06:26:22,32.17938,-118.89404,093.3 050.0,093.3,050.0,509.000,513.215,,6.1167,,6.1227,,6.1197,34.3323,,34.3335,34.3325,,34.3344,34.3340,0.2362,,0.3131,0.3155,0.2409,,0.3089,0.3132,0.3144,10.272,13.2371,13.6724,10.476,16.2223,13.7154,13.6939,0.0375,,,,0.5756,,0.0000,,27.0160,,27.0153,,,,,,,,,,,6.0715,6.0775,0.7930,110.635,3.413,3.481,,,,,,,,,,,,
CalCOFI,2105SH,007,,2105_007u,05-May-2021 14:26:23,05-May-2021 06:26:23,32.17938,-118.89404,093.3 050.0,093.3,050.0,508.000,512.205,,6.1216,,6.1277,,6.1247,34.3310,,34.3322,34.3318,,34.3337,34.3330,0.2362,,0.3131,0.3155,0.2408,,0.3088,0.3131,0.3143,10.269,13.2340,13.6692,10.472,16.2191,13.7113,13.6903,0.0377,,,,0.5757,,0.0000,,27.0143,,27.0141,,,,,,,,,,,6.0765,6.0826,0.7930,110.782,3.413,3.481,,,,,,,,,,,,
CalCOFI,2105SH,007,,2105_007u,05-May-2021 14:26:25,05-May-2021 06:26:25,32.17939,-118.89404,093.3 050.0,093.3,050.0,507.000,511.196,,6.1257,,6.1273,,6.1265,34.3307,,34.3319,34.3318,,34.3337,34.3328,0.2361,,0.3130,0.3154,0.2408,,0.3088,0.3131,0.3143,10.267,13.2319,13.6672,10.471,16.2169,13.7102,13.6887,0.0376,,,,0.5758,,0.0000,,27.0135,,27.0142,,,,,,,,,,,6.0807,6.0822,0.7930,110.844,3.412,3.480,,,,,,,,,,,,
CalCOFI,2105SH,007,,2105_007u,05-May-2021 14:26:26,05-May-2021 06:26:26,32.17938,-118.89404,093.3 050.0,093.3,050.0,506.000,510.186,,6.1259,,6.1272,,6.1266,34.3307,,34.3319,34.3308,,34.3327,34.3323,0.2361,,0.3130,0.3154,0.2408,,0.3088,0.3131,0.3143,10.265,13.2298,13.6651,10.470,16.2147,13.7092,13.6872,0.0374,,,,0.5759,,0.0000,,27.0135,,27.0134,,,,,,,,,,,6.0810,6.0823,0.7930,110.838,3.412,3.480,,,,,,,,,,,,
CalCOFI,2105SH,007,,2105_007u,05-May-2021 14:26:27,05-May-2021 06:26:27,32.17938,-118.89404,093.3 050.0,093.3,050.0,505.000,509.177,,6.1284,,6.1314,,6.1299,34.3300,,34.3312,34.3301,,34.3320,34.3316,0.2360,,0.3129,0.3153,0.2407,,0.3087,0.3130,0.3142,10.263,13.2277,13.6630,10.468,16.2126,13.7071,13.6851,0.0376,,,,0.5760,,0.0000,,27.0126,,27.0123,,,,,,,,,,,6.0835,6.0865,0.7930,110.908,3.411,3.479,,,,,,,,,,,,
CalCOFI,2105SH,007,,2105_007u,05-May-2021 14:26:28,05-May-2021 06:26:28,32.17938,-118.89404,093.3 050.0,093.3,050.0,504.000,508.167,,6.1299,,6.1320,,6.1310,34.3295,,34.3307,34.3299,,34.3318,34.3313,0.2360,,0.3129,0.3153,0.2407,,0.3087,0.3130,0.3142,10.262,13.2267,13.6620,10.466,16.2115,13.7051,13.6836,0.0382,,,,0.5761,,0.0000,,27.0120,,27.0120,,,,,,,,,,,6.0851,6.0872,0.7930,110.948,3.411,3.479,,,,,,,,,,,,
CalCOFI,2105SH,007,,2105_007u,05-May-2021 14:26:29,05-May-2021 06:26:29,32.17938,-118.89404,093.3 050.0,093.3,050.0,503.000,507.158,,6.1330,,6.1341,,6.1336,34.3292,,34.3304,34.3297,,34.3316,34.3310,0.2359,,0.3128,0.3152,0.2406,,0.3086,0.3129,0.3141,10.259,13.2236,13.6588,10.464,16.2083,13.7030,13.6809,0.0366,,,,0.5762,,0.0000,,27.0114,,27.0116,,,,,,,,,,,6.0883,6.0894,0.7930,111.001,3.410,3.478,,,,,,,,,,,,
CalCOFI,2105SH,007,,2105_007u,05-May-2021 14:26:30,05-May-2021 06:26:30,32.17938,-118.89404,093.3 050.0,093.3,050.0,502.000,506.148,,6.1414,,6.1340,,6.1377,34.3285,,34.3297,34.3290,,34.3309,34.3303,0.2377,,0.3147,0.3171,0.2406,,0.3086,0.3129,0.3150,10.335,13.3030,13.7379,10.463,16.2903,13.7020,13.7200,0.0380,,,,0.5763,,0.0000,,27.0097,,27.0111,,,,,,,,,,,6.0968,6.0894,0.7930,111.150,3.436,3.478,,,,,,,,,,,,
CalCOFI,2105SH,007,,2105_007u,05-May-2021 14:26:31,05-May-2021 06:26:31,32.17938,-118.89404,093.3 050.0,093.3,050.0,501.000,505.139,,6.1581,,6.1370,,6.1476,34.3285,,34.3297,34.3311,,34.3330,34.3314,0.2442,,0.3215,0.3238,0.2480,,0.3163,0.3205,0.3222,10.620,13.6009,14.0345,10.784,16.5981,14.0325,14.0335,0.0378,,,,0.5764,,0.0000,,27.0076,,27.0124,,,,,,,,,,,6.1135,6.0924,0.7930,111.356,3.532,3.585,,,,,,,,,,,,
CalCOFI,2105SH,007,,2105_007u,05-May-2021 14:26:33,05-May-2021 06:26:33,32.17938,-118.89404,093.3 050.0,093.3,050.0,500.000,504.129,,6.1773,,6.1779,,6.1776,34.3282,,34.3294,34.3295,,34.3314,34.3304,0.2399,,0.3170,0.3194,0.2455,,0.3137,0.3179,0.3187,10.433,13.4055,13.8399,10.675,16.3962,13.9202,13.8801,0.0370,,,,0.5767,,0.0000,,27.0049,,27.0058,,,,,,,,,,,6.1327,6.1333,0.7930,111.618,3.472,3.552,,,,,,,,,,,,
CalCOFI,2105SH,007,,2105_007u,05-May-2021 14:26:36,05-May-2021 06:26:36,32.17938,-118.89404,093.3 050.0,093.3,050.0,499.000,503.120,,6.1806,,6.1798,,6.1802,34.3284,,34.3296,34.3291,,34.3310,34.3303,0.2400,,0.3171,0.3195,0.2444,,0.3125,0.3168,0.3182,10.437,13.4096,13.8441,10.628,16.4005,13.8719,13.8580,0.0366,,,,0.5769,,0.0000,,27.0046,,27.0053,,,,,,,,,,,6.1360,6.1353,0.7930,111.637,3.473,3.536,,,,,,,,,,,,
CalCOFI,2105SH,007,,2105_007u,05-May-2021 14:26:37,05-May-2021 06:26:37,32.17939,-118.89404,093.3 050.0,093.3,050.0,498.000,502.110,,6.1806,,6.1820,,6.1813,34.3281,,34.3293,34.3292,,34.3311,34.3302,0.2400,,0.3171,0.3195,0.2444,,0.3125,0.3168,0.3182,10.436,13.4086,13.8430,10.628,16.3994,13.8719,13.8575,0.0374,,,,0.5770,,0.0000,,27.0044,,27.0050,,,,,,,,,,,6.1362,6.1376,0.7930,111.642,3.473,3.537,,,,,,,,,,,,
CalCOFI,2105SH,007,,2105_007u,05-May-2021 14:26:38,05-May-2021 06:26:38,32.17940,-118.89404,093.3 050.0,093.3,050.0,497.000,501.101,,6.1797,,6.1838,,6.1818,34.3287,,34.3299,34.3288,,34.3307,34.3303,0.2411,,0.3182,0.3206,0.2447,,0.3129,0.3171,0.3189,10.487,13.4619,13.8961,10.638,16.4545,13.8821,13.8891,0.0375,,,,0.5772,,0.0000,,27.0049,,27.0045,,,,,,,,,,,6.1354,6.1394,0.7930,111.577,3.489,3.540,,,,,,,,,,,,
CalCOFI,2105SH,007,,2105_007u,05-May-2021 14:26:39,05-May-2021 06:26:39,32.17940,-118.89404,093.3 050.0,093.3,050.0,496.000,500.091,,6.1841,,6.1840,,6.1841,34.3279,,34.3291,34.3287,,34.3306,34.3299,0.2425,,0.3197,0.3221,0.2452,,0.3134,0.3176,0.3199,10.543,13.5205,13.9544,10.664,16.5150,13.9089,13.9317,0.0378,,,,0.5773,,0.0000,,27.0037,,27.0044,,,,,,,,,,,6.1399,6.1398,0.7930,111.679,3.509,3.549,,,,,,,,,,,,
CalCOFI,2105SH,007,,2105_007u,05-May-2021 14:26:40,05-May-2021 06:26:40,32.17940,-118.89404,093.3 050.0,093.3,050.0,495.000,499.082,,6.1853,,6.1865,,6.1859,34.3281,,34.3293,34.3287,,34.3306,34.3300,0.2381,,0.3151,0.3175,0.2481,,0.3164,0.3206,0.3191,10.352,13.3208,13.7556,10.787,16.3087,14.0355,13.8956,0.0374,,,,0.5774,,0.0000,,27.0037,,27.0041,,,,,,,,,,,6.1411,6.1424,0.7930,111.665,3.445,3.590,,,,,,,,,,,,
CalCOFI,2105SH,007,,2105_007u,05-May-2021 14:26:41,05-May-2021 06:26:41,32.17940,-118.89404,093.3 050.0,093.3,050.0,494.000,498.072,,6.1888,,6.1907,,6.1898,34.3275,,34.3287,34.3287,,34.3306,34.3297,0.2404,,0.3175,0.3199,0.2434,,0.3115,0.3157,0.3178,10.453,13.4264,13.8607,10.585,16.4178,13.8276,13.8442,0.0382,,,,0.5776,,0.0000,,27.0028,,27.0035,,,,,,,,,,,6.1447,6.1466,0.7930,111.740,3.479,3.523,,,,,,,,,,,,
CalCOFI,2105SH,007,,2105_007u,05-May-2021 14:26:43,05-May-2021 06:26:43,32.17940,-118.89404,093.3 050.0,093.3,050.0,493.000,497.063,,6.1923,,6.1963,,6.1943,34.3273,,34.3285,34.3287,,34.3306,34.3296,0.2470,,0.3244,0.3267,0.2542,,0.3227,0.3268,0.3268,10.740,13.7264,14.1593,11.055,16.7277,14.3115,14.2354,0.0365,,,,0.5777,,0.0000,,27.0022,,27.0028,,,,,,,,,,,6.1483,6.1523,0.7930,111.790,3.575,3.680,,,,,,,,,,,,
CalCOFI,2105SH,007,,2105_007u,05-May-2021 14:26:44,05-May-2021 06:26:44,32.17940,-118.89404,093.3 050.0,093.3,050.0,492.000,496.053,,6.1969,,6.2002,,6.1986,34.3271,,34.3283,34.3281,,34.3300,34.3292,0.2464,,0.3238,0.3261,0.2503,,0.3187,0.3228,0.3245,10.714,13.6992,14.1323,10.883,16.6997,14.1344,14.1334,0.0369,,,,0.5778,,0.0000,,27.0014,,27.0018,,,,,,,,,,,6.1530,6.1562,0.7930,111.857,3.566,3.623,,,,,,,,,,,,
CalCOFI,2105SH,007,,2105_007u,05-May-2021 14:26:45,05-May-2021 06:26:45,32.17940,-118.89404,093.3 050.0,093.3,050.0,491.000,495.044,,6.1960,,6.2009,,6.1985,34.3275,,34.3287,34.3279,,34.3298,34.3293,0.2442,,0.3215,0.3238,0.2486,,0.3169,0.3211,0.3225,10.620,13.6009,14.0345,10.812,16.5981,14.0613,14.0479,0.0379,,,,0.5780,,0.0000,,27.0018,,27.0015,,,,,,,,,,,6.1522,6.1570,0.7930,111.798,3.535,3.599,,,,,,,,,,,,
CalCOFI,2105SH,007,,2105_007u,05-May-2021 14:26:46,05-May-2021 06:26:46,32.17940,-118.89404,093.3 050.0,093.3,050.0,490.000,494.035,,6.1996,,6.2018,,6.2007,34.3270,,34.3282,34.3282,,34.3301,34.3292,0.2441,,0.3214,0.3237,0.2486,,0.3169,0.3211,0.3224,10.614,13.5947,14.0282,10.810,16.5917,14.0592,14.0437,0.0382,,,,0.5781,,0.0000,,27.0010,,27.0016,,,,,,,,,,,6.1558,6.1581,0.7930,111.866,3.534,3.599,,,,,,,,,,,,
CalCOFI,2105SH,007,,2105_007u,05-May-2021 14:26:48,05-May-2021 06:26:48,32.17940,-118.89402,093.3 050.0,093.3,050.0,489.000,493.025,,6.2043,,6.2054,,6.2049,34.3272,,34.3284,34.3282,,34.3301,34.3293,0.2440,,0.3213,0.3236,0.2485,,0.3168,0.3210,0.3223,10.612,13.5926,14.0262,10.808,16.5895,14.0572,14.0417,0.0373,,,,0.5782,,0.0000,,27.0005,,27.0012,,,,,,,,,,,6.1606,6.1617,0.7930,111.902,3.533,3.598,,,,,,,,,,,,
CalCOFI,2105SH,007,,2105_007u,05-May-2021 14:26:50,05-May-2021 06:26:50,32.17940,-118.89402,093.3 050.0,093.3,050.0,488.000,492.016,,6.2056,,6.2075,,6.2066,34.3273,,34.3285,34.3279,,34.3298,34.3292,0.2440,,0.3213,0.3236,0.2485,,0.3168,0.3210,0.3223,10.610,13.5905,14.0241,10.806,16.5873,14.0551,14.0396,0.0363,,,,0.5784,,0.0000,,27.0005,,27.0007,,,,,,,,,,,6.1620,6.1639,0.7930,111.896,3.533,3.598,,,,,,,,,,,,
CalCOFI,2105SH,007,,2105_007u,05-May-2021 14:26:51,05-May-2021 06:26:51,32.17940,-118.89402,093.3 050.0,093.3,050.0,487.000,491.006,,6.2064,,6.2075,,6.2070,34.3272,,34.3284,34.3279,,34.3298,34.3291,0.2439,,0.3212,0.3235,0.2485,,0.3168,0.3210,0.3223,10.608,13.5884,14.0220,10.804,16.5852,14.0530,14.0375,0.0362,,,,0.5785,,0.0000,,27.0003,,27.0007,,,,,,,,,,,6.1629,6.1640,0.7930,111.901,3.532,3.598,,,,,,,,,,,,
CalCOFI,2105SH,007,,2105_007u,05-May-2021 14:26:52,05-May-2021 06:26:52,32.17940,-118.89402,093.3 050.0,093.3,050.0,486.000,489.997,,6.2060,,6.2069,,6.2065,34.3276,,34.3288,34.3280,,34.3299,34.3294,0.2439,,0.3212,0.3235,0.2484,,0.3167,0.3209,0.3222,10.607,13.5874,14.0210,10.803,16.5841,14.0520,14.0365,0.0362,,,,0.5785,,0.0000,,27.0006,,27.0008,,,,,,,,,,,6.1626,6.1635,0.7930,111.856,3.532,3.597,,,,,,,,,,,,
CalCOFI,2105SH,007,,2105_007u,05-May-2021 14:26:53,05-May-2021 06:26:53,32.17940,-118.89401,093.3 050.0,093.3,050.0,485.000,488.988,,6.2067,,6.2062,,6.2065,34.3273,,34.3285,34.3279,,34.3298,34.3292,0.2439,,0.3212,0.3235,0.2484,,0.3167,0.3209,0.3222,10.605,13.5853,14.0189,10.802,16.5819,14.0510,14.0350,0.0368,,,,0.5786,,0.0000,,27.0002,,27.0008,,,,,,,,,,,6.1634,6.1629,0.7930,111.876,3.531,3.597,,,,,,,,,,,,
CalCOFI,2105SH,007,,2105_007u,05-May-2021 14:26:54,05-May-2021 06:26:54,32.17940,-118.89400,093.3 050.0,093.3,050.0,484.000,487.978,,6.2060,,6.2069,,6.2065,34.3274,,34.3286,34.3280,,34.3299,34.3293,0.2439,,0.3212,0.3235,0.2484,,0.3167,0.3209,0.3222,10.604,13.5842,14.0178,10.800,16.5809,14.0489,14.0334,0.0373,,,,0.5786,,0.0000,,27.0004,,27.0008,,,,,,,,,,,6.1628,6.1636,0.7930,111.841,3.531,3.596,,,,,,,,,,,,
CalCOFI,2105SH,007,,2105_007u,05-May-2021 14:26:55,05-May-2021 06:26:55,32.17940,-118.89400,093.3 050.0,093.3,050.0,483.000,486.969,,6.2066,,6.2071,,6.2069,34.3273,,34.3285,34.3280,,34.3299,34.3292,0.2438,,0.3211,0.3234,0.2483,,0.3166,0.3208,0.3221,10.603,13.5832,14.0168,10.799,16.5798,14.0479,14.0324,0.0368,,,,0.5787,,0.0000,,27.0002,,27.0007,,,,,,,,,,,6.1635,6.1640,0.7930,111.849,3.530,3.596,,,,,,,,,,,,
CalCOFI,2105SH,007,,2105_007u,05-May-2021 14:26:56,05-May-2021 06:26:56,32.17940,-118.89400,093.3 050.0,093.3,050.0,482.000,485.959,,6.2085,,6.2162,,6.2124,34.3272,,34.3284,34.3272,,34.3291,34.3288,0.2438,,0.3211,0.3234,0.2482,,0.3165,0.3207,0.3221,10.601,13.5811,14.0147,10.795,16.5776,14.0438,14.0293,0.0377,,,,0.5787,,0.0000,,26.9999,,26.9990,,,,,,,,,,,6.1654,6.1731,0.7930,111.862,3.530,3.595,,,,,,,,,,,,
CalCOFI,2105SH,007,,2105_007u,05-May-2021 14:26:57,05-May-2021 06:26:57,32.17940,-118.89400,093.3 050.0,093.3,050.0,481.000,484.950,,6.2120,,6.2210,,6.2165,34.3268,,34.3280,34.3272,,34.3291,34.3286,0.2437,,0.3210,0.3233,0.2482,,0.3165,0.3207,0.3220,10.598,13.5779,14.0116,10.792,16.5744,14.0407,14.0262,0.0372,,,,0.5788,,0.0000,,26.9991,,26.9983,,,,,,,,,,,6.1690,6.1780,0.7930,111.926,3.529,3.595,,,,,,,,,,,,
CalCOFI,2105SH,007,,2105_007u,05-May-2021 14:26:58,05-May-2021 06:26:58,32.17940,-118.89400,093.3 050.0,093.3,050.0,480.000,483.940,,6.2178,,6.2209,,6.2194,34.3263,,34.3275,34.3267,,34.3286,34.3281,0.2437,,0.3210,0.3233,0.2481,,0.3164,0.3206,0.3220,10.595,13.5748,14.0085,10.791,16.5711,14.0397,14.0241,0.0373,,,,0.5788,,0.0000,,26.9980,,26.9979,,,,,,,,,,,6.1749,6.1780,0.7930,112.025,3.529,3.594,,,,,,,,,,,,
CalCOFI,2105SH,007,,2105_007u,05-May-2021 14:26:59,05-May-2021 06:26:59,32.17940,-118.89400,093.3 050.0,093.3,050.0,479.000,482.931,,6.2223,,6.2213,,6.2218,34.3263,,34.3275,34.3265,,34.3284,34.3280,0.2440,,0.3213,0.3236,0.2481,,0.3164,0.3206,0.3221,10.612,13.5926,14.0262,10.789,16.5895,14.0376,14.0319,0.0379,,,,0.5788,,0.0000,,26.9973,,26.9977,,,,,,,,,,,6.1795,6.1785,0.7930,112.078,3.535,3.594,,,,,,,,,,,,
CalCOFI,2105SH,007,,2105_007u,05-May-2021 14:27:00,05-May-2021 06:27:00,32.17940,-118.89400,093.3 050.0,093.3,050.0,478.000,481.922,,6.2273,,6.2300,,6.2287,34.3259,,34.3271,34.3264,,34.3283,34.3277,0.2451,,0.3224,0.3247,0.2480,,0.3163,0.3205,0.3226,10.657,13.6396,14.0730,10.785,16.6381,14.0335,14.0533,0.0372,,,,0.5789,,0.0000,,26.9964,,26.9965,,,,,,,,,,,6.1846,6.1873,0.7930,112.155,3.550,3.593,,,,,,,,,,,,
CalCOFI,2105SH,007,,2105_007u,05-May-2021 14:27:01,05-May-2021 06:27:01,32.17940,-118.89400,093.3 050.0,093.3,050.0,477.000,480.912,,6.2311,,6.2334,,6.2323,34.3256,,34.3268,34.3267,,34.3286,34.3277,0.2454,,0.3227,0.3251,0.2491,,0.3174,0.3216,0.3234,10.672,13.6553,14.0886,10.832,16.6543,14.0819,14.0853,0.0383,,,,0.5789,,0.0000,,26.9957,,26.9963,,,,,,,,,,,6.1884,6.1907,0.7930,112.213,3.556,3.609,,,,,,,,,,,,
CalCOFI,2105SH,007,,2105_007u,05-May-2021 14:27:02,05-May-2021 06:27:02,32.17940,-118.89400,093.3 050.0,093.3,050.0,476.000,479.903,,6.2290,,6.2334,,6.2312,34.3268,,34.3280,34.3262,,34.3281,34.3281,0.2504,,0.3280,0.3302,0.2519,,0.3203,0.3245,0.3274,10.887,13.8801,14.3123,10.952,16.8865,14.2054,14.2589,0.0383,,,,0.5790,,0.0000,,26.9969,,26.9959,,,,,,,,,,,6.1864,6.1908,0.7930,112.086,3.627,3.649,,,,,,,,,,,,
CalCOFI,2105SH,007,,2105_007u,05-May-2021 14:27:03,05-May-2021 06:27:03,32.17940,-118.89400,093.3 050.0,093.3,050.0,475.000,478.894,,6.2318,,6.2375,,6.2347,34.3257,,34.3269,34.3268,,34.3287,34.3278,0.2510,,0.3286,0.3308,0.2504,,0.3188,0.3229,0.3269,10.913,13.9073,14.3394,10.888,16.9146,14.1395,14.2395,0.0366,,,,0.5791,,0.0000,,26.9956,,26.9958,,,,,,,,,,,6.1893,6.1950,0.7930,112.193,3.636,3.628,,,,,,,,,,,,
CalCOFI,2105SH,007,,2105_007u,05-May-2021 14:27:04,05-May-2021 06:27:04,32.17938,-118.89400,093.3 050.0,093.3,050.0,474.000,477.884,,6.2396,,6.2472,,6.2434,34.3254,,34.3266,34.3263,,34.3282,34.3274,0.2481,,0.3256,0.3278,0.2553,,0.3238,0.3279,0.3279,10.790,13.7787,14.2114,11.104,16.7817,14.3619,14.2867,0.0377,,,,0.5791,,0.0000,,26.9944,,26.9942,,,,,,,,,,,6.1972,6.2047,0.7930,112.303,3.595,3.701,,,,,,,,,,,,
CalCOFI,2105SH,007,,2105_007u,05-May-2021 14:27:05,05-May-2021 06:27:05,32.17938,-118.89400,093.3 050.0,093.3,050.0,473.000,476.875,,6.2432,,6.2496,,6.2464,34.3254,,34.3266,34.3257,,34.3276,34.3271,0.2481,,0.3256,0.3278,0.2521,,0.3205,0.3247,0.3263,10.789,13.7776,14.2103,10.964,16.7807,14.2178,14.2141,0.0382,,,,0.5792,,0.0000,,26.9939,,26.9933,,,,,,,,,,,6.2008,6.2073,0.7930,112.337,3.595,3.654,,,,,,,,,,,,
CalCOFI,2105SH,007,,2105_007u,05-May-2021 14:27:06,05-May-2021 06:27:06,32.17940,-118.89400,093.3 050.0,093.3,050.0,472.000,475.866,,6.2456,,6.2488,,6.2472,34.3251,,34.3263,34.3256,,34.3275,34.3269,0.2481,,0.3256,0.3278,0.2533,,0.3218,0.3259,0.3269,10.787,13.7755,14.2082,11.017,16.7785,14.2723,14.2403,0.0366,,,,0.5793,,0.0000,,26.9934,,26.9933,,,,,,,,,,,6.2034,6.2065,0.7930,112.375,3.595,3.672,,,,,,,,,,,,
CalCOFI,2105SH,007,,2105_007u,05-May-2021 14:27:07,05-May-2021 06:27:07,32.17940,-118.89400,093.3 050.0,093.3,050.0,471.000,474.856,,6.2506,,6.2475,,6.2491,34.3245,,34.3257,34.3269,,34.3288,34.3273,0.2480,,0.3255,0.3277,0.2519,,0.3203,0.3245,0.3261,10.785,13.7734,14.2062,10.952,16.7763,14.2054,14.2058,0.0367,,,,0.5794,,0.0000,,26.9923,,26.9946,,,,,,,,,,,6.2084,6.2053,0.7930,112.471,3.594,3.650,,,,,,,,,,,,
CalCOFI,2105SH,007,,2105_007u,05-May-2021 14:27:08,05-May-2021 06:27:08,32.17940,-118.89400,093.3 050.0,093.3,050.0,470.000,473.847,,6.2527,,6.2483,,6.2505,34.3256,,34.3268,34.3255,,34.3274,34.3271,0.2480,,0.3255,0.3277,0.2518,,0.3202,0.3243,0.3260,10.782,13.7703,14.2030,10.952,16.7731,14.2054,14.2042,0.0381,,,,0.5795,,0.0000,,26.9929,,26.9933,,,,,,,,,,,6.2106,6.2062,0.7930,112.404,3.594,3.650,,,,,,,,,,,,
CalCOFI,2105SH,007,,2105_007u,05-May-2021 14:27:09,05-May-2021 06:27:09,32.17938,-118.89400,093.3 050.0,093.3,050.0,469.000,472.838,,6.2507,,6.2487,,6.2497,34.3256,,34.3268,34.3261,,34.3280,34.3274,0.2479,,0.3254,0.3276,0.2518,,0.3202,0.3243,0.3260,10.782,13.7703,14.2030,10.950,16.7731,14.2034,14.2032,0.0374,,,,0.5796,,0.0000,,26.9930,,26.9937,,,,,,,,,,,6.2087,6.2067,0.7930,112.368,3.594,3.650,,,,,,,,,,,,
CalCOFI,2105SH,007,,2105_007u,05-May-2021 14:27:10,05-May-2021 06:27:10,32.17938,-118.89400,093.3 050.0,093.3,050.0,468.000,471.828,,6.2489,,6.2521,,6.2505,34.3252,,34.3264,34.3259,,34.3278,34.3271,0.2479,,0.3254,0.3276,0.2518,,0.3202,0.3243,0.3260,10.781,13.7693,14.2020,10.948,16.7720,14.2013,14.2017,0.0370,,,,0.5796,,0.0000,,26.9930,,26.9931,,,,,,,,,,,6.2070,6.2102,0.7930,112.358,3.593,3.649,,,,,,,,,,,,
CalCOFI,2105SH,007,,2105_007u,05-May-2021 14:27:10,05-May-2021 06:27:10,32.17938,-118.89400,093.3 050.0,093.3,050.0,467.000,470.819,,6.2505,,6.2557,,6.2531,34.3253,,34.3265,34.3251,,34.3270,34.3268,0.2479,,0.3254,0.3276,0.2517,,0.3201,0.3242,0.3259,10.779,13.7672,14.1999,10.945,16.7699,14.1982,14.1991,0.0370,,,,0.5797,,0.0000,,26.9928,,26.9920,,,,,,,,,,,6.2087,6.2139,0.7930,112.359,3.593,3.649,,,,,,,,,,,,
CalCOFI,2105SH,007,,2105_007u,05-May-2021 14:27:11,05-May-2021 06:27:11,32.17940,-118.89400,093.3 050.0,093.3,050.0,466.000,469.810,,6.2517,,6.2542,,6.2530,34.3250,,34.3262,34.3256,,34.3275,34.3269,0.2478,,0.3252,0.3275,0.2517,,0.3201,0.3242,0.3259,10.777,13.7651,14.1978,10.944,16.7677,14.1972,14.1975,0.0386,,,,0.5798,,0.0000,,26.9925,,26.9926,,,,,,,,,,,6.2100,6.2125,0.7930,112.382,3.592,3.648,,,,,,,,,,,,
CalCOFI,2105SH,007,,2105_007u,05-May-2021 14:27:12,05-May-2021 06:27:12,32.17940,-118.89400,093.3 050.0,093.3,050.0,465.000,468.800,,6.2565,,6.2551,,6.2558,34.3240,,34.3252,34.3255,,34.3274,34.3263,0.2498,,0.3273,0.3296,0.2553,,0.3238,0.3279,0.3288,10.863,13.8550,14.2873,11.102,16.8606,14.3598,14.3236,0.0372,,,,0.5799,,0.0000,,26.9910,,26.9924,,,,,,,,,,,6.2148,6.2134,0.7930,112.509,3.621,3.701,,,,,,,,,,,,
CalCOFI,2105SH,007,,2105_007u,05-May-2021 14:27:12,05-May-2021 06:27:12,32.17940,-118.89400,093.3 050.0,093.3,050.0,464.000,467.791,,6.2581,,6.2556,,6.2569,34.3238,,34.3250,34.3254,,34.3273,34.3262,0.2559,,0.3337,0.3359,0.2628,,0.3316,0.3356,0.3358,11.129,14.1331,14.5641,11.428,17.1479,14.6955,14.6298,0.0366,,,,0.5800,,0.0000,,26.9907,,26.9922,,,,,,,,,,,6.2166,6.2141,0.7930,112.528,3.710,3.810,,,,,,,,,,,,
CalCOFI,2105SH,007,,2105_007u,05-May-2021 14:27:13,05-May-2021 06:27:13,32.17940,-118.89399,093.3 050.0,093.3,050.0,463.000,466.782,,6.2639,,6.2626,,6.2633,34.3224,,34.3236,34.3238,,34.3257,34.3247,0.2546,,0.3324,0.3346,0.2586,,0.3273,0.3313,0.3330,11.070,14.0714,14.5027,11.247,17.0841,14.5091,14.5059,0.0368,,,,0.5802,,0.0000,,26.9888,,26.9900,,,,,,,,,,,6.2224,6.2211,0.7930,112.696,3.691,3.750,,,,,,,,,,,,
CalCOFI,2105SH,007,,2105_007u,05-May-2021 14:27:15,05-May-2021 06:27:15,32.17940,-118.89398,093.3 050.0,093.3,050.0,462.000,465.772,,6.2670,,6.2669,,6.2670,34.3217,,34.3229,34.3226,,34.3245,34.3237,0.2526,,0.3303,0.3325,0.2560,,0.3246,0.3287,0.3306,10.985,13.9825,14.4143,11.132,16.9923,14.3907,14.4025,0.0375,,,,0.5805,,0.0000,,26.9878,,26.9885,,,,,,,,,,,6.2256,6.2255,0.7930,112.775,3.663,3.712,,,,,,,,,,,,
CalCOFI,2105SH,007,,2105_007u,05-May-2021 14:27:16,05-May-2021 06:27:16,32.17940,-118.89398,093.3 050.0,093.3,050.0,461.000,464.763,,6.2682,,6.2697,,6.2690,34.3211,,34.3223,34.3215,,34.3234,34.3229,0.2610,,0.3391,0.3412,0.2622,,0.3310,0.3350,0.3381,11.349,14.3630,14.7930,11.403,17.3855,14.6697,14.7314,0.0370,,,,0.5807,,0.0000,,26.9871,,26.9873,,,,,,,,,,,6.2269,6.2284,0.7930,112.827,3.784,3.802,,,,,,,,,,,,